Siren, WI

2:56 PM CDT on July 26, 2017 (GMT -0500)
Burnett County

Weather History for KRZN - February, 2013

Change the Weather History Date:

Wednesday, February 27, 2013

  Actual Average Record
Temperature  
Mean Temperature 31 °F -  
Max Temperature 32 °F - - ()
Min Temperature 30 °F - - ()
Degree Days  
Heating Degree Days 34    
Moisture  
Dew Point 25 °F    
Average Humidity 77    
Maximum Humidity 86    
Minimum Humidity 69    
Precipitation  
Precipitation 0.03 in - - ()
Sea Level Pressure  
Sea Level Pressure 29.92 in    
Wind  
Wind Speed 13 mph (NE)    
Max Wind Speed 20 mph    
Max Gust Speed 29 mph    
Visibility 10 miles    
Events Snow    
Averages and records for this station are not official NWS values.
T = Trace of Precipitation, MM = Missing Value Source: NWS Daily Summary

Daily Weather History Graph

Daily Weather History Graph

Search for Another Location

Airport or City:

Trip Planner

Search our weather history database for the weather conditions in past years. The results will help you decide how hot, cold, wet, or windy it might be!

Date:

Astronomy

Feb. 27, 2013 Rise Set
Actual Time 6:51 AM CST 5:53 PM CST
Civil Twilight 6:21 AM CST 6:23 PM CST
Nautical Twilight 5:46 AM CST 6:58 PM CST
Astronomical Twilight 5:12 AM CST 7:32 PM CST
Moon 8:26 PM CST (2/27) 7:18 AM CST (2/27)
Length of Visible Light 12h 02m
Length of Day
11h 02m
Waning Gibbous, 96% of the Moon is Illuminated
Feb 27
Waning Gibbous
Mar 4
Last Quarter
Mar 11
New
Mar 19
First Quarter
Mar 27
Full

Hourly Weather History & Observations

Time (CST) Temp. Windchill Dew Point Humidity Pressure Visibility Wind Dir Wind Speed Gust Speed Precip Events Conditions
12:15 AM 30.2 °F 20.2 °F 24.8 °F 80% 29.90 in 10.0 mi ENE 12.7 mph 18.4 mph N/A   Overcast
12:35 AM 30.2 °F 20.8 °F 24.8 °F 80% 29.89 in 10.0 mi ENE 11.5 mph 16.1 mph N/A   Overcast
12:55 AM 30.2 °F 19.3 °F 24.8 °F 80% 29.89 in 10.0 mi NE 15.0 mph 18.4 mph N/A   Overcast
1:15 AM 30.2 °F 20.2 °F 24.8 °F 80% 29.89 in 10.0 mi NE 12.7 mph 21.9 mph N/A   Overcast
1:35 AM 30.2 °F 19.8 °F 24.8 °F 80% 29.88 in 10.0 mi ENE 13.8 mph 19.6 mph N/A   Overcast
1:55 AM 30.2 °F 20.2 °F 24.8 °F 80% 29.89 in 10.0 mi ENE 12.7 mph 21.9 mph N/A   Overcast
2:15 AM 30.2 °F 21.3 °F 24.8 °F 80% 29.89 in 10.0 mi ENE 10.4 mph 17.3 mph N/A   Overcast
2:35 AM 30.2 °F 21.3 °F 24.8 °F 80% 29.89 in 10.0 mi ENE 10.4 mph 17.3 mph N/A   Overcast
2:55 AM 30.2 °F 21.3 °F 24.8 °F 80% 29.89 in 10.0 mi ENE 10.4 mph 16.1 mph N/A   Overcast
3:15 AM 30.2 °F 20.8 °F 24.8 °F 80% 29.88 in 10.0 mi ENE 11.5 mph 23.0 mph N/A   Overcast
3:35 AM 30.2 °F 20.8 °F 24.8 °F 80% 29.88 in 10.0 mi ENE 11.5 mph 21.9 mph N/A   Overcast
3:55 AM 30.2 °F 20.2 °F 24.8 °F 80% 29.88 in 10.0 mi ENE 12.7 mph 20.7 mph N/A   Overcast
4:15 AM 30.2 °F 21.9 °F 24.8 °F 80% 29.88 in 10.0 mi ENE 9.2 mph - N/A   Overcast
4:35 AM 30.2 °F 20.2 °F 24.8 °F 80% 29.88 in 10.0 mi NE 12.7 mph 17.3 mph N/A   Overcast
4:55 AM 30.2 °F 20.8 °F 24.8 °F 80% 29.88 in 10.0 mi NE 11.5 mph - N/A   Overcast
5:35 AM 30.2 °F 20.8 °F 23.0 °F 75% 29.88 in 10.0 mi NE 11.5 mph 16.1 mph N/A   Overcast
5:55 AM 30.2 °F 20.2 °F 23.0 °F 75% 29.88 in 10.0 mi NE 12.7 mph 18.4 mph N/A   Overcast
6:35 AM 30.2 °F 20.2 °F 24.8 °F 80% 29.88 in 10.0 mi NE 12.7 mph 20.7 mph N/A   Overcast
6:55 AM 32.0 °F 23.0 °F 24.8 °F 75% 29.88 in 10.0 mi ENE 11.5 mph 21.9 mph N/A   Overcast
7:15 AM 32.0 °F 23.6 °F 24.8 °F 75% 29.88 in 10.0 mi NE 10.4 mph 20.7 mph N/A   Overcast
7:35 AM 32.0 °F 22.5 °F 24.8 °F 75% 29.88 in 10.0 mi ENE 12.7 mph - N/A   Overcast
7:55 AM 32.0 °F 21.2 °F 24.8 °F 75% 29.89 in 10.0 mi NE 16.1 mph 24.2 mph N/A   Overcast
8:15 AM 32.0 °F 23.6 °F 26.6 °F 80% 29.89 in 10.0 mi NE 10.4 mph 16.1 mph N/A   Overcast
8:35 AM 32.0 °F 23.6 °F 26.6 °F 80% 29.90 in 10.0 mi NE 10.4 mph 21.9 mph N/A   Overcast
8:55 AM 32.0 °F 23.0 °F 26.6 °F 80% 29.90 in 10.0 mi NE 11.5 mph 19.6 mph N/A   Overcast
9:15 AM 32.0 °F 24.2 °F 26.6 °F 80% 29.89 in 10.0 mi NE 9.2 mph 20.7 mph N/A   Overcast
9:35 AM 32.0 °F 22.5 °F 26.6 °F 80% 29.89 in 10.0 mi NNE 12.7 mph - N/A   Overcast
9:55 AM 32.0 °F 23.0 °F 24.8 °F 75% 29.88 in 10.0 mi NE 11.5 mph 24.2 mph N/A   Overcast
10:15 AM 32.0 °F 22.1 °F 26.6 °F 80% 29.88 in 10.0 mi NNE 13.8 mph 25.3 mph N/A   Overcast
10:35 AM 32.0 °F 20.8 °F 24.8 °F 75% 29.88 in 10.0 mi NNE 17.3 mph 27.6 mph N/A   Overcast
10:55 AM 32.0 °F 21.2 °F 24.8 °F 75% 29.88 in 10.0 mi NE 16.1 mph 26.5 mph N/A   Overcast
11:15 AM 32.0 °F 22.1 °F 26.6 °F 80% 29.88 in 10.0 mi NE 13.8 mph - N/A   Overcast
11:35 AM 32.0 °F 21.2 °F 24.8 °F 75% 29.88 in 10.0 mi NNE 16.1 mph - N/A   Overcast
11:55 AM 32.0 °F 21.6 °F 24.8 °F 75% 29.89 in 10.0 mi NE 15.0 mph 24.2 mph N/A   Overcast
12:15 PM 32.0 °F 20.1 °F 24.8 °F 75% 29.89 in 10.0 mi NE 19.6 mph 23.0 mph N/A   Overcast
12:35 PM 32.0 °F 22.1 °F 24.8 °F 75% 29.89 in 10.0 mi NE 13.8 mph 24.2 mph N/A   Overcast
12:55 PM 32.0 °F 22.1 °F 26.6 °F 80% 29.89 in 7.0 mi NE 13.8 mph 23.0 mph N/A Snow Light Snow
1:15 PM 32.0 °F 21.2 °F 26.6 °F 80% 29.90 in 5.0 mi NNE 16.1 mph 21.9 mph 0.03 in Snow Light Snow
1:35 PM 32.0 °F 22.1 °F 26.6 °F 80% 29.90 in 10.0 mi NE 13.8 mph - 0.03 in   Overcast
1:55 PM 32.0 °F 22.5 °F 26.6 °F 80% 29.90 in 10.0 mi NE 12.7 mph - 0.03 in   Overcast
2:35 PM 32.0 °F 21.6 °F 26.6 °F 80% 29.91 in 10.0 mi NE 15.0 mph 19.6 mph N/A   Overcast
2:55 PM 30.2 °F 18.5 °F 26.6 °F 86% 29.92 in 10.0 mi NE 17.3 mph 23.0 mph N/A   Overcast
3:15 PM 30.2 °F 18.9 °F 26.6 °F 86% 29.93 in 10.0 mi NNE 16.1 mph 20.7 mph N/A   Overcast
3:35 PM 30.2 °F 19.8 °F 24.8 °F 80% 29.93 in 10.0 mi NE 13.8 mph 20.7 mph N/A   Overcast
3:55 PM 30.2 °F 19.8 °F 24.8 °F 80% 29.93 in 10.0 mi NE 13.8 mph 23.0 mph N/A   Overcast
4:15 PM 30.2 °F 18.5 °F 24.8 °F 80% 29.94 in 10.0 mi NE 17.3 mph 28.8 mph N/A   Overcast
4:35 PM 30.2 °F 19.8 °F 23.0 °F 75% 29.94 in 10.0 mi NE 13.8 mph 23.0 mph N/A   Overcast
4:55 PM 30.2 °F 18.5 °F 23.0 °F 75% 29.95 in 10.0 mi NE 17.3 mph 25.3 mph N/A   Overcast
5:15 PM 30.2 °F 19.8 °F 24.8 °F 80% 29.95 in 10.0 mi ENE 13.8 mph 25.3 mph N/A   Overcast
5:35 PM 30.2 °F 19.3 °F 23.0 °F 75% 29.95 in 10.0 mi NE 15.0 mph 25.3 mph N/A   Overcast
5:55 PM 30.2 °F 20.8 °F 23.0 °F 75% 29.96 in 10.0 mi ENE 11.5 mph 18.4 mph N/A   Scattered Clouds
6:15 PM 32.0 °F 23.0 °F 23.0 °F 69% 29.96 in 10.0 mi ENE 11.5 mph 20.7 mph N/A   Mostly Cloudy
6:35 PM 32.0 °F 23.0 °F 23.0 °F 69% 29.97 in 10.0 mi ENE 11.5 mph 16.1 mph N/A   Overcast
6:55 PM 32.0 °F 23.6 °F 23.0 °F 69% 29.98 in 10.0 mi NE 10.4 mph 18.4 mph N/A   Overcast
7:15 PM 32.0 °F 24.2 °F 23.0 °F 69% 29.98 in 10.0 mi NE 9.2 mph - N/A   Overcast
7:35 PM 32.0 °F 26.4 °F 23.0 °F 69% 29.98 in 10.0 mi NE 5.8 mph - N/A   Overcast
8:15 PM 32.0 °F 24.2 °F 23.0 °F 69% 29.99 in 10.0 mi NNE 9.2 mph - N/A   Overcast
8:35 PM 32.0 °F 23.6 °F 23.0 °F 69% 29.99 in 10.0 mi NNE 10.4 mph - N/A   Mostly Cloudy
8:55 PM 32.0 °F 23.6 °F 23.0 °F 69% 29.99 in 10.0 mi NNE 10.4 mph - N/A   Mostly Cloudy
9:15 PM 32.0 °F 24.2 °F 23.0 °F 69% 29.99 in 10.0 mi NNE 9.2 mph - N/A   Scattered Clouds
9:35 PM 30.2 °F 21.9 °F 23.0 °F 75% 29.99 in 10.0 mi NE 9.2 mph - N/A   Scattered Clouds
10:15 PM 30.2 °F 22.6 °F 23.0 °F 75% 30.00 in 10.0 mi NE 8.1 mph - N/A   Overcast
10:35 PM 30.2 °F 21.3 °F 23.0 °F 75% 30.00 in 10.0 mi NE 10.4 mph - N/A   Scattered Clouds
10:55 PM 30.2 °F 21.9 °F 21.2 °F 69% 30.01 in 10.0 mi NE 9.2 mph - N/A   Mostly Cloudy
11:15 PM 30.2 °F 21.9 °F 21.2 °F 69% 30.01 in 10.0 mi NE 9.2 mph - N/A   Overcast